This demonstration page uses our WeatherBlox Daily Observations layout. Learn more.

Left ArrowRight Arrow

38.80484, -77.04692

Hourly Observations for December 19, 2021

Temp ( °F °C ) Dew Point ( °F °C ) Humidity (%) Winds ( mph kmh ) Pressure ( in mb ) Visibility ( mi km ) Precip ( " mm )
12:12 am 00:12 Partly Cloudy 56 13.3 53 11.7 90 90 NNW 6 9 29.82 1010 9 14 0.00 0.00
12:19 am 00:19 Mostly Cloudy 56 13.3 53 11.7 90 90 NNW 6 9 29.82 1010 10 16 0.00 0.00
12:52 am 00:52 Cloudy 56 13.3 52 11.1 87 87 N 7 11 29.84 1011 9 14 0.00 0.00
1:15 am 01:15 Cloudy 58 14.4 52 11.1 81 81 WNW 15 24 29.86 1011 10 16 0.00 0.00
1:30 am 01:30 Cloudy 57 13.9 49 9.4 74 74 NW 17 28 29.86 1011 10 16 0.00 0.00
1:52 am 01:52 Cloudy 56 13.3 47 8.3 72 72 NW 16 26 29.88 1012 10 16 0.00 0.00
2:52 am 02:52 Cloudy 54 12.2 45 7.2 72 72 NW 15 24 29.91 1013 10 16 0.00 0.00
3:52 am 03:52 Cloudy 53 11.7 40 4.4 61 61 NNW 18 30 29.93 1014 10 16 0.00 0.00
4:52 am 04:52 Cloudy 50 10 36 2.2 59 59 NNW 21 33 29.98 1015 10 16 0.00 0.00
5:52 am 05:52 Cloudy with Light Rain 48 8.9 32 0 54 54 NW 18 30 30.02 1017 10 16 0.00 0.00
6:52 am 06:52 Cloudy 46 7.8 31 -0.6 56 56 NNW 24 39 30.06 1018 10 16 0.00 0.00
7:52 am 07:52 Cloudy 45 7.2 28 -2.2 52 52 NNW 21 33 30.09 1019 10 16 0.00 0.00
8:52 am 08:52 Cloudy 45 7.2 27 -2.8 49 49 N 21 33 30.12 1020 10 16 0.00 0.00
9:52 am 09:52 Cloudy 45 7.2 24 -4.4 44 44 NNW 22 35 30.14 1021 10 16 0.00 0.00
10:52 am 10:52 Mostly Cloudy 45 7.2 24 -4.4 44 44 NNW 20 31 30.16 1021 10 16 0.00 0.00
11:52 am 11:52 Mostly Cloudy 45 7.2 26 -3.3 48 48 N 21 33 30.14 1021 10 16 0.00 0.00
12:52 pm 12:52 Mostly Cloudy 45 7.2 25 -3.9 46 46 N 16 26 30.14 1021 10 16 0.00 0.00
1:52 pm 13:52 Mostly Cloudy 45 7.2 25 -3.9 46 46 N 20 31 30.15 1021 10 16 0.00 0.00
2:52 pm 14:52 Mostly Cloudy 46 7.8 26 -3.3 46 46 N 17 28 30.14 1021 9 14 0.00 0.00
3:52 pm 15:52 Partly Cloudy 44 6.7 23 -5 43 43 N 20 31 30.17 1022 10 16 0.00 0.00
4:52 pm 16:52 Partly Cloudy 41 5 24 -4.4 51 51 N 12 19 30.19 1022 10 16 0.00 0.00
5:52 pm 17:52 Partly Cloudy 41 5 23 -5 49 49 N 15 24 30.22 1023 10 16 0.00 0.00
6:52 pm 18:52 Partly Cloudy 39 3.9 22 -5.6 50 50 NNW 13 20 30.26 1025 10 16 0.00 0.00
7:52 pm 19:52 Partly Cloudy 39 3.9 22 -5.6 50 50 NW 13 20 30.29 1026 10 16 0.00 0.00
8:52 pm 20:52 Partly Cloudy 37 2.8 22 -5.6 54 54 NNW 15 24 30.29 1026 10 16 0.00 0.00
9:52 pm 21:52 Partly Cloudy 36 2.2 22 -5.6 57 57 NNW 12 19 30.31 1027 10 16 0.00 0.00
10:52 pm 22:52 Partly Cloudy 35 1.7 22 -5.6 59 59 NNW 13 20 30.33 1027 10 16 0.00 0.00
11:52 pm 23:52 Mostly Clear 33 0.6 22 -5.6 64 64 NNW 10 17 30.33 1027 10 16 0.00 0.00

Powered by AerisWeather